CW9386 Weather Reports


Display with metric or nautical units.
time (UTC)temp
F
wind
direction
speed
MPH
gust
MPH
rain 1hr
in
rain 24hr
in
rain mn
in
humidity
%
barometer
mb
20260901234659 92 288 4.0 12.0 0.00 0.00 0.00 26 1017.7
20260901233656 92 246 6.0 9.0 0.00 0.00 0.00 26 1017.7
20260901232706 92 242 4.0 9.0 0.00 0.00 0.00 26 1017.6
20260901231659 92 238 7.0 11.0 0.00 0.00 0.00 27 1017.6
20260901230708 91 248 7.0 13.0 0.00 0.00 0.00 27 1017.5
20260901225701 91 243 7.0 11.0 0.00 0.00 0.00 27 1017.6
20260901224652 91 306 4.0 10.0 0.00 0.00 0.00 26 1017.5
20260901223708 91 220 3.0 12.0 0.00 0.00 0.00 26 1017.6
20260901222702 91 248 6.0 8.0 0.00 0.00 0.00 26 1017.7
20260901221704 92 240 4.0 11.0 0.00 0.00 0.00 26 1017.8
20260901220703 91 238 6.0 13.0 0.00 0.00 0.00 26 1017.7
20260901215658 91 262 7.0 9.0 0.00 0.00 0.00 26 1017.8
20260901214650 91 254 6.0 12.0 0.00 0.00 0.00 27 1017.8
20260901213707 91 254 5.0 11.0 0.00 0.00 0.00 27 1018.0
20260901212707 91 262 6.0 11.0 0.00 0.00 0.00 27 1018.0
20260901211656 92 248 7.0 10.0 0.00 0.00 0.00 27 1018.0
20260901210650 92 248 9.0 11.0 0.00 0.00 0.00 26 1018.0
20260901205707 92 212 4.0 10.0 0.00 0.00 0.00 26 1018.3
20260901204701 92 190 6.0 10.0 0.00 0.00 0.00 25 1019.3
20260901203649 93 173 2.0 9.0 0.00 0.00 0.00 25 1019.5
20260901202708 93 140 7.0 13.0 0.00 0.00 0.00 25 1019.5
20260901200656 93 249 7.0 13.0 0.00 0.00 0.00 26 1019.9
20260901194706 92 246 9.0 12.0 0.00 0.00 0.00 26 1020.0
20260901193657 92 258 4.0 12.0 0.00 0.00 0.00 27 1020.1
20260901192652 91 236 7.0 11.0 0.00 0.00 0.00 27 1020.3
20260901191705 91 316 7.0 11.0 0.00 0.00 0.00 27 1020.3
20260901185656 90 273 6.0 12.0 0.00 0.00 0.00 28 1020.6
20260901184653 90 140 4.0 10.0 0.00 0.00 0.00 27 1020.7
20260901183706 90 198 2.0 8.0 0.00 0.00 0.00 28 1020.7
20260901182655 89 281 5.0 12.0 0.00 0.00 0.00 28 1020.8
20260901180648 89 189 2.0 4.0 0.00 0.00 0.00 29 1020.9
20260901175701 88 170 3.0 7.0 0.00 0.00 0.00 31 1021.1
20260901174656 88 259 3.0 5.0 0.00 0.00 0.00 31 1021.2
20260901173652 87 22 1.0 6.0 0.00 0.00 0.00 32 1021.3
20260901172644 86 240 2.0 7.0 0.00 0.00 0.00 33 1021.3
20260901171654 86 271 2.0 5.0 0.00 0.00 0.00 33 1021.4
20260901170651 86 231 1.0 7.0 0.00 0.00 0.00 33 1021.4
20260901165648 85 98 2.0 6.0 0.00 0.00 0.00 35 1021.4
20260901164656 85 111 3.0 6.0 0.00 0.00 0.00 35 1021.3
20260901163654 84 77 2.0 5.0 0.00 0.00 0.00 38 1021.3
20260901162643 83 106 0.0 4.0 0.00 0.00 0.00 40 1021.3
20260901155653 81 102 1.0 3.0 0.00 0.00 0.00 41 1021.1
20260901154648 81 94 2.0 2.0 0.00 0.00 0.00 42 1021.0
20260901153701 79 355 1.0 3.0 0.00 0.00 0.00 45 1021.1
20260901151652 77 306 1.0 3.0 0.00 0.00 0.00 47 1021.1
20260901150642 76 334 0.0 2.0 0.00 0.00 0.00 50 1021.0
20260901145658 75 331 0.0 1.0 0.00 0.00 0.00 53 1021.1
20260901144651 74 76 0.0 2.0 0.00 0.00 0.00 55 1020.9
20260901143644 74 75 1.0 1.0 0.00 0.00 0.00 55 1021.0
20260901142640 73 75 0.0 3.0 0.00 0.00 0.00 56 1020.9
20260901141649 73 121 1.0 3.0 0.00 0.00 0.00 56 1020.8
20260901140659 73 105 3.0 4.0 0.00 0.00 0.00 56 1020.8
20260901135650 72 81 2.0 3.0 0.00 0.00 0.00 56 1020.6
20260901134644 72 86 2.0 5.0 0.00 0.00 0.00 56 1020.6
20260901133639 72 71 1.0 4.0 0.00 0.00 0.00 56 1020.5
20260901132656 72 95 3.0 6.0 0.00 0.00 0.00 56 1020.5
20260901131651 71 94 1.0 2.0 0.00 0.00 0.00 57 1020.4
20260901130641 71 94 1.0 2.0 0.00 0.00 0.00 57 1020.5
20260901125649 71 82 2.0 3.0 0.00 0.00 0.00 57 1020.2
20260901122651 71 135 2.0 3.0 0.00 0.00 0.00 57 1019.8
20260901121645 72 213 0.0 2.0 0.00 0.00 0.00 55 1019.8
20260901120641 72 219 0.0 2.0 0.00 0.00 0.00 54 1019.9
20260901115653 72 227 2.0 4.0 0.00 0.00 0.00 54 1019.8
20260901114645 72 252 3.0 4.0 0.00 0.00 0.00 55 1019.7
20260901113644 72 267 0.0 3.0 0.00 0.00 0.00 54 1019.4
20260901112653 73 5 1.0 1.0 0.00 0.00 0.00 54 1019.4
20260901111646 73 72 0.0 1.0 0.00 0.00 0.00 53 1019.4
20260901110646 73 77 0.0 3.0 0.00 0.00 0.00 54 1019.3
20260901105643 73 62 1.0 3.0 0.00 0.00 0.00 53 1019.2
20260901104642 74 51 2.0 4.0 0.00 0.00 0.00 52 1019.2
20260901103636 74 74 1.0 2.0 0.00 0.00 0.00 52 1019.4
20260901101639 74 80 2.0 3.0 0.00 0.00 0.00 51 1019.6
20260901100652 74 59 0.0 3.0 0.00 0.00 0.00 51 1019.5
20260901095652 74 59 1.0 4.0 0.00 0.00 0.00 51 1019.5
20260901094647 74 63 1.0 4.0 0.00 0.00 0.00 51 1019.6
20260901093641 74 39 2.0 4.0 0.00 0.00 0.00 51 1019.5
20260901092638 74 54 2.0 3.0 0.00 0.00 0.00 51 1019.5
20260901091639 74 69 2.0 5.0 0.00 0.00 0.00 52 1019.6
20260901090701 74 62 3.0 5.0 0.00 0.00 0.00 52 1019.8
20260901085700 74 65 3.0 8.0 0.00 0.00 0.00 52 1019.4
20260901084642 74 38 5.0 7.0 0.00 0.00 0.00 52 1019.4
20260901083650 74 36 3.0 8.0 0.00 0.00 0.00 53 1019.7
20260901082654 75 27 5.0 9.0 0.00 0.00 0.00 53 1019.6
20260901081648 75 22 5.0 11.0 0.00 0.00 0.00 54 1019.4
20260901080639 74 57 7.0 12.0 0.00 0.00 0.00 55 1019.4
20260901075637 74 44 5.0 10.0 0.00 0.00 0.00 56 1019.4
20260901074653 74 65 4.0 8.0 0.00 0.00 0.00 57 1019.5
20260901072635 75 38 6.0 9.0 0.00 0.00 0.00 59 1019.3
20260901071646 75 87 3.0 7.0 0.00 0.00 0.00 62 1019.8
20260901070637 77 55 5.0 8.0 0.00 0.00 0.00 56 1019.8
20260901065649 77 80 2.0 10.0 0.00 0.00 0.00 51 1020.2
20260901064636 77 349 3.0 9.0 0.00 0.00 0.00 45 1020.2
20260901063634 77 307 6.0 9.0 0.00 0.00 0.00 45 1020.2
20260901055646 77 339 6.0 12.0 0.00 0.00 0.00 47 1020.5
20260901054642 77 315 9.0 12.0 0.00 0.00 0.00 48 1020.2
20260901053637 77 337 3.0 10.0 0.00 0.00 0.00 50 1020.5
20260901052653 77 277 6.0 14.0 0.00 0.00 0.00 51 1020.9
20260901051643 77 296 6.0 16.0 0.00 0.00 0.00 51 1020.7
20260901045639 77 284 6.0 15.0 0.00 0.00 0.00 51 1021.3
20260901044646 78 225 8.0 12.0 0.00 0.00 0.00 50 1021.4
20260901043640 78 209 5.0 15.0 0.00 0.00 0.00 48 1021.1
20260901041641 78 233 8.0 16.0 0.00 0.00 0.00 47 1020.4
20260901040639 79 263 10.0 17.0 0.00 0.00 0.00 47 1020.3
20260901035634 79 183 6.0 12.0 0.00 0.00 0.00 47 1020.2
20260901034649 79 193 8.0 19.0 0.00 0.00 0.00 46 1020.0
20260901033645 80 225 11.0 20.0 0.00 0.00 0.00 45 1019.8
20260901032632 81 246 9.0 18.0 0.00 0.00 0.00 43 1019.2
20260901025638 83 192 9.0 19.0 0.00 0.00 0.00 36 1018.2
20260901024634 84 186 9.0 13.0 0.00 0.00 0.00 33 1017.6
20260901023639 85 228 3.0 16.0 0.00 0.00 0.00 33 1017.3
20260901022638 85 217 6.0 13.0 0.00 0.00 0.00 32 1016.8
20260901021749 86 178 14.0 22.0 0.00 0.00 0.00 31 1016.5
20260901020739 87 286 9.0 14.0 0.00 0.00 0.00 28 1015.6
20260901015746 88 360 9.0 15.0 0.00 0.00 0.00 27 1015.4
20260901014746 90 252 11.0 17.0 0.00 0.00 0.00 25 1015.2
20260901012741 91 246 1.0 6.0 0.00 0.00 0.00 23 1014.7
20260901010729 92 228 2.0 5.0 0.00 0.00 0.00 22 1014.5
20260901004736 93 213 3.0 4.0 0.00 0.00 0.00 21 1014.5
20260901003732 93 60 2.0 3.0 0.00 0.00 0.00 21 1014.5
20260901002741 92 36 3.0 4.0 0.00 0.00 0.00 21 1014.6
20260901001737 92 19 3.0 10.0 0.00 0.00 0.00 21 1014.8
20260901000735 93 15 6.0 11.0 0.00 0.00 0.00 22 1014.8